Weather History for Huron, SD

Change the Weather History Date:

Thursday, August 29, 2013

  Actual Average Record
Temperature  
Mean Temperature 85 °F 69 °F  
Max Temperature 100 °F 82 °F 101 °F (1961)
Min Temperature 70 °F 56 °F 36 °F (1946)
Degree Days  
Heating Degree Days 0 2  
Month to date heating degree days 1 14  
Since 1 June heating degree days 88 73  
Since 1 July heating degree days 22 22  
Cooling Degree Days 20 5  
Month to date cooling degree days 235 216  
Year to date cooling degree days 663 659  
Since 1 June cooling degree days 625 626  
Growing Degree Days 35 (Base 50)    
Moisture  
Dew Point 69 °F    
Average Humidity 64    
Maximum Humidity 85    
Minimum Humidity 32    
Precipitation  
Precipitation 0.00 in 0.07 in 1.29 in (1924)
Month to date precipitation 1.22 2.29  
Year to date precipitation 17.20 17.12  
Snow  
Snow 0.00 in 0.00 in 0.00 in ()
Month to date snowfall 0.0 0.0  
Since 1 June snowfall 0.0 0.0  
Since 1 July snowfall 0.0 0.0  
Snow Depth 0.00 in    
Sea Level Pressure  
Sea Level Pressure 29.85 in    
Wind  
Wind Speed 8 mph (South)    
Max Wind Speed 16 mph    
Max Gust Speed 23 mph    
Visibility 10 miles    
Events      
T = Trace of Precipitation, MM = Missing Value Source: NWS Daily Summary

Daily Weather History Graph

Daily Weather History Graph

Search for Another Location

Airport:

Trip Planner

Search our weather history database for the weather conditions in past years. The results will help you decide how hot, cold, wet, or windy it might be!

Date:

Astronomy

Aug. 29, 2013 Rise Set
Actual Time 6:52 AM CDT 8:14 PM CDT
Civil Twilight 6:22 AM CDT 8:44 PM CDT
Nautical Twilight 5:45 AM CDT 9:20 PM CDT
Astronomical Twilight 5:07 AM CDT 9:58 PM CDT
Moon 12:38 AM CDT (8/29) 3:51 PM CDT (8/29)
Length of Visible Light 14h 21m
Length of Day
13h 21m
Last Quarter, 38% of the Moon is Illuminated
Aug 29
Last Quarter
Sep 5
New
Sep 12
First Quarter
Sep 19
Full
Sep 26
Last Quarter

Hourly Weather History & Observations

Time (CDT) Temp. Heat Index Dew Point Humidity Pressure Visibility Wind Dir Wind Speed Gust Speed Precip Events Conditions
12:55 AM 77.0 °F - 72.0 °F 84% 29.90 in 10.0 mi South 4.6 mph - N/A   Clear
1:55 AM 75.9 °F - 71.1 °F 85% 29.90 in 10.0 mi South 8.1 mph - N/A   Clear
3:55 AM 73.0 °F - 66.9 °F 81% 29.88 in 10.0 mi SSE 5.8 mph - N/A   Clear
4:55 AM 72.0 °F - 66.0 °F 81% 29.87 in 10.0 mi SSE 6.9 mph - N/A   Clear
5:55 AM 71.1 °F - 64.9 °F 81% 29.87 in 10.0 mi South 8.1 mph - N/A   Clear
6:55 AM 70.0 °F - 64.9 °F 84% 29.88 in 10.0 mi SSE 8.1 mph - N/A   Clear
7:55 AM 71.1 °F - 66.0 °F 84% 29.87 in 10.0 mi South 11.5 mph - N/A   Clear
8:55 AM 75.0 °F - 66.9 °F 76% 29.88 in 10.0 mi South 8.1 mph - N/A   Clear
9:55 AM 80.1 °F 82.7 °F 68.0 °F 67% 29.88 in 10.0 mi South 8.1 mph - N/A   Clear
10:55 AM 82.9 °F 85.8 °F 68.0 °F 60% 29.87 in 10.0 mi South 10.4 mph 16.1 mph N/A   Scattered Clouds
11:55 AM 84.9 °F 88.8 °F 69.1 °F 59% 29.86 in 10.0 mi SSE 12.7 mph - N/A   Clear
12:55 PM 91.0 °F 95.6 °F 69.1 °F 48% 29.83 in 10.0 mi South 11.5 mph 19.6 mph N/A   Clear
1:55 PM 93.9 °F 99.1 °F 69.1 °F 44% 29.82 in 10.0 mi South 12.7 mph 20.7 mph N/A   Clear
2:55 PM 96.1 °F 101.0 °F 68.0 °F 40% 29.81 in 10.0 mi SSW 12.7 mph 18.4 mph N/A   Clear
3:55 PM 98.1 °F 101.8 °F 66.0 °F 35% 29.80 in 10.0 mi SSW 12.7 mph 20.7 mph N/A   Clear
4:55 PM 99.0 °F 101.7 °F 64.0 °F 32% 29.79 in 10.0 mi South 9.2 mph - N/A   Clear
5:55 PM 96.1 °F 104.9 °F 72.0 °F 46% 29.79 in 10.0 mi North 12.7 mph - N/A   Clear
6:55 PM 93.9 °F 100.8 °F 71.1 °F 47% 29.80 in 10.0 mi North 6.9 mph - N/A   Clear
7:55 PM 89.1 °F 94.1 °F 70.0 °F 53% 29.81 in 10.0 mi Calm Calm - N/A   Clear
8:55 PM 81.0 °F 84.4 °F 70.0 °F 69% 29.83 in 10.0 mi Calm Calm - N/A   Clear
9:55 PM 79.0 °F - 71.1 °F 77% 29.83 in 10.0 mi Calm Calm - N/A   Clear
10:55 PM 81.0 °F 85.2 °F 72.0 °F 74% 29.85 in 10.0 mi NNE 9.2 mph - N/A   Clear
11:55 PM 79.0 °F - 71.1 °F 77% 29.87 in 10.0 mi NNE 9.2 mph - N/A   Clear